When you browse on this site, cookies collect data to enhance your experience and personalize the content and advertising you see.
Visit our Privacy Policy to learn more. By continuing to use the site, you agree to this use of cookies and data.
  • In Schweiz
  • Länderverzeichnis
  • Für 7 Tage
  • Wassertemperatur
  • Wetterkarte
  • Widgets
  • user-avatar
    Anmelden

    Stündliche Wetter Porto Alegre

    Heute, 7 April, Dienstag

    Zeit Temperatur Niederschläge Wind Luftdruck Luftfeuchtigkeit
    00:00 +20°C° 0.1 mm 5 m/S 759 mmHg 79%
    01:00 +19°C° 0 mm 5 m/S 759 mmHg 72%
    02:00 +19°C° 0 mm 4 m/S 759 mmHg 66%
    03:00 +18°C° 0 mm 3 m/S 760 mmHg 62%
    04:00 +18°C° 0 mm 3 m/S 760 mmHg 60%
    05:00 +17°C° 0 mm 3 m/S 761 mmHg 59%
    06:00 +17°C° 0 mm 3 m/S 761 mmHg 57%
    07:00 +17°C° 0 mm 3 m/S 761 mmHg 56%
    08:00 +17°C° 0 mm 3 m/S 762 mmHg 55%
    09:00 +18°C° 0 mm 3 m/S 762 mmHg 53%
    10:00 +19°C° 0 mm 3 m/S 762 mmHg 48%
    11:00 +20°C° 0 mm 3 m/S 762 mmHg 43%
    12:00 +21°C° 0 mm 3 m/S 762 mmHg 37%
    13:00 +21°C° 0 mm 3 m/S 762 mmHg 36%
    14:00 +22°C° 0 mm 3 m/S 761 mmHg 35%
    15:00 +22°C° 0 mm 3 m/S 761 mmHg 33%
    16:00 +21°C° 0 mm 3 m/S 761 mmHg 38%
    17:00 +20°C° 0 mm 3 m/S 761 mmHg 42%
    18:00 +19°C° 0 mm 3 m/S 761 mmHg 47%
    19:00 +18°C° 0 mm 3 m/S 762 mmHg 49%
    20:00 +18°C° 0 mm 3 m/S 762 mmHg 51%
    21:00 +17°C° 0 mm 3 m/S 762 mmHg 54%
    22:00 +16°C° 0 mm 3 m/S 763 mmHg 56%
    23:00 +16°C° 0 mm 3 m/S 763 mmHg 58%

    Morgen, 8 April, Mittwoch

    Zeit Temperatur Niederschläge Wind Luftdruck Luftfeuchtigkeit
    00:00 +14°C° 0 mm 3 m/S 763 mmHg 60%
    01:00 +14°C° 0 mm 3 m/S 763 mmHg 62%
    02:00 +14°C° 0 mm 2 m/S 763 mmHg 65%
    03:00 +13°C° 0 mm 2 m/S 762 mmHg 68%
    04:00 +13°C° 0 mm 2 m/S 762 mmHg 70%
    05:00 +12°C° 0 mm 2 m/S 763 mmHg 71%
    06:00 +12°C° 0 mm 2 m/S 763 mmHg 73%
    07:00 +13°C° 0 mm 2 m/S 763 mmHg 69%
    08:00 +14°C° 0 mm 2 m/S 763 mmHg 65%
    09:00 +15°C° 0 mm 2 m/S 764 mmHg 62%
    10:00 +17°C° 0 mm 2 m/S 763 mmHg 56%
    11:00 +19°C° 0 mm 2 m/S 763 mmHg 50%
    12:00 +20°C° 0 mm 2 m/S 763 mmHg 45%
    13:00 +21°C° 0 mm 2 m/S 762 mmHg 44%
    14:00 +21°C° 0 mm 2 m/S 761 mmHg 43%
    15:00 +22°C° 0 mm 3 m/S 760 mmHg 43%
    16:00 +21°C° 0 mm 3 m/S 760 mmHg 48%
    17:00 +20°C° 0 mm 3 m/S 760 mmHg 53%
    18:00 +19°C° 0 mm 3 m/S 760 mmHg 58%
    19:00 +18°C° 0 mm 3 m/S 761 mmHg 62%
    20:00 +18°C° 0 mm 3 m/S 761 mmHg 65%
    21:00 +17°C° 0 mm 2 m/S 762 mmHg 68%
    22:00 +16°C° 0 mm 2 m/S 762 mmHg 68%
    23:00 +16°C° 0 mm 3 m/S 762 mmHg 69%

    übermorgen, 9 April, Donnerstag

    Zeit Temperatur Niederschläge Wind Luftdruck Luftfeuchtigkeit
    00:00 +16°C° 0 mm 3 m/S 762 mmHg 70%
    01:00 +15°C° 0 mm 2 m/S 761 mmHg 73%
    02:00 +15°C° 0 mm 2 m/S 761 mmHg 76%
    03:00 +14°C° 0 mm 2 m/S 760 mmHg 80%
    04:00 +14°C° 0 mm 2 m/S 760 mmHg 81%
    05:00 +14°C° 0 mm 2 m/S 760 mmHg 83%
    06:00 +13°C° 0 mm 2 m/S 760 mmHg 84%
    07:00 +14°C° 0 mm 2 m/S 760 mmHg 81%
    08:00 +15°C° 0 mm 2 m/S 761 mmHg 77%
    09:00 +16°C° 0 mm 2 m/S 761 mmHg 74%
    10:00 +17°C° 0 mm 2 m/S 761 mmHg 69%
    11:00 +20°C° 0 mm 1 m/S 761 mmHg 64%
    12:00 +21°C° 0 mm 1 m/S 760 mmHg 60%
    13:00 +22°C° 0.1 mm 1 m/S 760 mmHg 58%
    14:00 +22°C° 0.1 mm 1 m/S 760 mmHg 57%
    15:00 +23°C° 0.1 mm 1 m/S 759 mmHg 56%
    16:00 +22°C° 0.1 mm 1 m/S 759 mmHg 60%
    17:00 +21°C° 0.1 mm 1 m/S 759 mmHg 64%
    18:00 +20°C° 0.1 mm 1 m/S 759 mmHg 69%
    19:00 +20°C° 0 mm 1 m/S 759 mmHg 71%
    20:00 +19°C° 0 mm 1 m/S 759 mmHg 74%
    21:00 +17°C° 0 mm 2 m/S 760 mmHg 76%
    22:00 +18°C° 0 mm 1 m/S 759 mmHg 79%
    23:00 +16°C° 0 mm 1 m/S 759 mmHg 81%

    10 April, Freitag

    Zeit Temperatur Niederschläge Wind Luftdruck Luftfeuchtigkeit
    00:00 +16°C° 0 mm 1 m/S 759 mmHg 83%
    01:00 +16°C° 0 mm 1 m/S 759 mmHg 85%
    02:00 +15°C° 0 mm 2 m/S 759 mmHg 86%
    03:00 +15°C° 0 mm 2 m/S 759 mmHg 88%
    04:00 +15°C° 0 mm 2 m/S 759 mmHg 88%
    05:00 +15°C° 0 mm 2 m/S 759 mmHg 89%
    06:00 +14°C° 0 mm 2 m/S 758 mmHg 89%
    07:00 +15°C° 0 mm 2 m/S 759 mmHg 86%
    08:00 +16°C° 0 mm 2 m/S 759 mmHg 83%
    09:00 +17°C° 0 mm 2 m/S 760 mmHg 80%
    10:00 +19°C° 0.2 mm 2 m/S 760 mmHg 74%
    11:00 +20°C° 0.2 mm 2 m/S 759 mmHg 68%
    12:00 +23°C° 0.2 mm 2 m/S 759 mmHg 63%
    13:00 +23°C° 0.7 mm 2 m/S 759 mmHg 62%
    14:00 +22°C° 0.7 mm 3 m/S 759 mmHg 62%
    15:00 +22°C° 0.7 mm 3 m/S 758 mmHg 62%
    16:00 +22°C° 0.1 mm 3 m/S 758 mmHg 64%
    17:00 +21°C° 0.1 mm 3 m/S 758 mmHg 67%
    18:00 +20°C° 0.1 mm 3 m/S 758 mmHg 69%
    19:00 +19°C° 0 mm 2 m/S 759 mmHg 72%
    20:00 +19°C° 0 mm 2 m/S 759 mmHg 74%
    21:00 +19°C° 0 mm 1 m/S 759 mmHg 76%
    22:00 +18°C° 0 mm 1 m/S 759 mmHg 78%
    23:00 +18°C° 0 mm 1 m/S 759 mmHg 79%

    11 April, Samstag

    Zeit Temperatur Niederschläge Wind Luftdruck Luftfeuchtigkeit
    00:00 +18°C° 0 mm 1 m/S 759 mmHg 81%
    01:00 +16°C° 0 mm 1 m/S 759 mmHg 82%
    02:00 +16°C° 0 mm 1 m/S 759 mmHg 83%
    03:00 +16°C° 0 mm 1 m/S 759 mmHg 84%
    04:00 +16°C° 0 mm 1 m/S 759 mmHg 85%
    05:00 +16°C° 0 mm 1 m/S 759 mmHg 85%
    06:00 +16°C° 0 mm 1 m/S 759 mmHg 86%
    07:00 +18°C° 0 mm 1 m/S 760 mmHg 82%
    08:00 +18°C° 0 mm 1 m/S 760 mmHg 78%
    09:00 +19°C° 0 mm 1 m/S 761 mmHg 75%
    10:00 +21°C° 0 mm 1 m/S 761 mmHg 66%
    11:00 +23°C° 0 mm 1 m/S 761 mmHg 58%
    12:00 +25°C° 0 mm 1 m/S 761 mmHg 50%
    13:00 +25°C° 0 mm 1 m/S 760 mmHg 49%
    14:00 +25°C° 0 mm 2 m/S 760 mmHg 48%
    15:00 +25°C° 0 mm 3 m/S 759 mmHg 47%
    16:00 +24°C° 0 mm 3 m/S 759 mmHg 52%
    17:00 +22°C° 0 mm 3 m/S 759 mmHg 56%
    18:00 +21°C° 0 mm 3 m/S 759 mmHg 61%
    19:00 +20°C° 0 mm 3 m/S 760 mmHg 64%
    20:00 +19°C° 0 mm 2 m/S 760 mmHg 68%
    21:00 +18°C° 0 mm 2 m/S 760 mmHg 71%
    22:00 +18°C° 0 mm 2 m/S 760 mmHg 73%
    23:00 +18°C° 0 mm 2 m/S 760 mmHg 74%

    12 April, Sonntag

    Zeit Temperatur Niederschläge Wind Luftdruck Luftfeuchtigkeit
    00:00 +18°C° 0 mm 1 m/S 760 mmHg 75%
    01:00 +18°C° 0 mm 1 m/S 760 mmHg 77%
    02:00 +16°C° 0 mm 1 m/S 760 mmHg 79%
    03:00 +16°C° 0 mm 1 m/S 759 mmHg 81%
    04:00 +16°C° 0 mm 1 m/S 759 mmHg 81%
    05:00 +15°C° 0 mm 1 m/S 760 mmHg 82%
    06:00 +15°C° 0 mm 1 m/S 760 mmHg 83%
    07:00 +18°C° 0 mm 1 m/S 760 mmHg 77%
    08:00 +19°C° 0 mm 1 m/S 760 mmHg 70%
    09:00 +20°C° 0 mm 1 m/S 760 mmHg 64%
    10:00 +22°C° 0 mm 1 m/S 760 mmHg 57%
    11:00 +24°C° 0 mm 1 m/S 760 mmHg 50%
    12:00 +26°C° 0 mm 1 m/S 760 mmHg 43%
    13:00 +27°C° 0 mm 1 m/S 759 mmHg 42%
    14:00 +27°C° 0 mm 1 m/S 759 mmHg 41%
    15:00 +27°C° 0 mm 2 m/S 758 mmHg 39%
    16:00 +26°C° 0 mm 2 m/S 758 mmHg 46%
    17:00 +25°C° 0 mm 3 m/S 758 mmHg 52%
    18:00 +22°C° 0 mm 4 m/S 758 mmHg 58%
    19:00 +21°C° 0 mm 4 m/S 758 mmHg 62%
    20:00 +20°C° 0 mm 4 m/S 758 mmHg 67%
    21:00 +19°C° 0 mm 4 m/S 758 mmHg 71%
    22:00 +19°C° 0 mm 3 m/S 758 mmHg 74%
    23:00 +19°C° 0 mm 3 m/S 758 mmHg 76%
    Mehr zeigen